| time (UTC) | temp F | wind direction | speed MPH | gust MPH | rain 1hr in | rain 24hr in | rain mn in | humidity % | barometer mb |
| 20260903130939 | 54 | 171 | 0.0 | 3.0 | 0.03 | 0.33 | 0.16 | 93 | 1008.8 |
| 20260903130437 | 54 | 203 | 0.0 | 3.0 | 0.04 | 0.33 | 0.16 | 93 | 1008.7 |
| 20260903125940 | 54 | 165 | 0.0 | 2.0 | 0.08 | 0.33 | 0.16 | 93 | 1008.8 |
| 20260903125936 | 54 | 170 | 0.0 | 2.0 | 0.06 | 0.33 | 0.16 | 93 | 1008.7 |
| 20260903125549 | 54 | 163 | 0.0 | 3.0 | 0.12 | 0.32 | 0.15 | 93 | 1008.9 |
| 20260903124935 | 54 | 164 | 0.0 | 2.0 | 0.12 | 0.33 | 0.16 | 93 | 1008.9 |
| 20260903123937 | 54 | 167 | 0.0 | 3.0 | 0.13 | 0.32 | 0.15 | 93 | 1008.8 |
| 20260903123435 | 54 | 134 | 0.0 | 2.0 | 0.13 | 0.32 | 0.15 | 92 | 1008.8 |
| 20260903122935 | 54 | 130 | 0.0 | 2.0 | 0.13 | 0.32 | 0.15 | 92 | 1008.9 |
| 20260903122436 | 54 | 175 | 0.0 | 2.0 | 0.13 | 0.32 | 0.15 | 92 | 1009.0 |
| 20260903121935 | 54 | 169 | 0.0 | 2.0 | 0.12 | 0.31 | 0.14 | 92 | 1009.0 |
| 20260903121440 | 54 | 148 | 0.0 | 2.0 | 0.12 | 0.30 | 0.13 | 92 | 1009.1 |
| 20260903121436 | 54 | 169 | 0.0 | 2.0 | 0.13 | 0.31 | 0.14 | 92 | 1009.0 |
| 20260903120433 | 54 | 179 | 0.0 | 2.0 | 0.11 | 0.29 | 0.13 | 92 | 1009.1 |
| 20260903115933 | 54 | 178 | 1.0 | 5.0 | 0.09 | 0.27 | 0.11 | 92 | 1009.2 |
| 20260903115435 | 54 | 178 | 1.0 | 5.0 | 0.07 | 0.25 | 0.08 | 91 | 1009.2 |
| 20260903114938 | 55 | 179 | 3.0 | 6.0 | 0.02 | 0.20 | 0.03 | 91 | 1009.3 |
| 20260903114933 | 54 | 171 | 3.0 | 6.0 | 0.03 | 0.21 | 0.05 | 91 | 1009.2 |
| 20260903113933 | 55 | 163 | 2.0 | 5.0 | 0.01 | 0.19 | 0.02 | 91 | 1009.1 |
| 20260903113432 | 55 | 165 | 1.0 | 5.0 | 0.01 | 0.19 | 0.02 | 91 | 1009.1 |
| 20260903112931 | 55 | 167 | 2.0 | 5.0 | 0.01 | 0.19 | 0.02 | 90 | 1009.0 |
| 20260903112438 | 54 | 174 | 1.0 | 3.0 | 0.00 | 0.18 | 0.01 | 91 | 1009.1 |
| 20260903112431 | 55 | 173 | 2.0 | 5.0 | 0.01 | 0.19 | 0.02 | 91 | 1009.0 |
| 20260903111931 | 54 | 180 | 1.0 | 3.0 | 0.01 | 0.19 | 0.02 | 91 | 1009.0 |
| 20260903110933 | 54 | 183 | 0.0 | 3.0 | 0.00 | 0.18 | 0.01 | 91 | 1008.9 |
| 20260903110431 | 54 | 180 | 1.0 | 3.0 | 0.00 | 0.18 | 0.01 | 91 | 1008.9 |
| 20260903105932 | 54 | 172 | 0.0 | 3.0 | 0.00 | 0.18 | 0.01 | 91 | 1008.9 |
| 20260903105433 | 54 | 168 | 0.0 | 3.0 | 0.00 | 0.18 | 0.01 | 90 | 1008.9 |
| 20260903104931 | 54 | 168 | 1.0 | 4.0 | 0.00 | 0.18 | 0.01 | 91 | 1009.0 |
| 20260903104430 | 55 | 166 | 1.0 | 4.0 | 0.00 | 0.18 | 0.01 | 90 | 1009.1 |
| 20260903103931 | 55 | 169 | 2.0 | 4.0 | 0.00 | 0.18 | 0.01 | 90 | 1009.0 |
| 20260903103429 | 55 | 172 | 1.0 | 4.0 | 0.00 | 0.18 | 0.01 | 90 | 1008.9 |
| 20260903102929 | 55 | 175 | 1.0 | 3.0 | 0.00 | 0.18 | 0.01 | 90 | 1009.1 |
| 20260903102431 | 55 | 186 | 1.0 | 2.0 | 0.00 | 0.18 | 0.01 | 90 | 1009.0 |
| 20260903101929 | 55 | 171 | 1.0 | 3.0 | 0.00 | 0.18 | 0.01 | 90 | 1009.1 |
| 20260903101429 | 55 | 173 | 1.0 | 3.0 | 0.00 | 0.18 | 0.01 | 90 | 1009.0 |
| 20260903100929 | 55 | 172 | 1.0 | 3.0 | 0.00 | 0.18 | 0.01 | 90 | 1009.0 |
| 20260903100435 | 55 | 165 | 1.0 | 4.0 | 0.00 | 0.18 | 0.01 | 90 | 1009.1 |
| 20260903100430 | 55 | 175 | 1.0 | 4.0 | 0.00 | 0.18 | 0.01 | 90 | 1009.0 |
| 20260903095428 | 55 | 171 | 1.0 | 5.0 | 0.00 | 0.18 | 0.01 | 90 | 1009.1 |
| 20260903094927 | 55 | 169 | 1.0 | 5.0 | 0.00 | 0.18 | 0.01 | 90 | 1009.1 |
| 20260903094427 | 55 | 171 | 1.0 | 4.0 | 0.00 | 0.18 | 0.01 | 89 | 1009.1 |
| 20260903093927 | 55 | 171 | 1.0 | 4.0 | 0.00 | 0.18 | 0.01 | 89 | 1009.0 |
| 20260903093427 | 55 | 169 | 2.0 | 4.0 | 0.01 | 0.18 | 0.01 | 89 | 1009.1 |
| 20260903092927 | 55 | 168 | 2.0 | 4.0 | 0.01 | 0.18 | 0.01 | 89 | 1009.1 |
| 20260903092429 | 55 | 180 | 2.0 | 5.0 | 0.01 | 0.18 | 0.01 | 89 | 1009.1 |
| 20260903091927 | 55 | 178 | 2.0 | 5.0 | 0.01 | 0.18 | 0.01 | 89 | 1009.0 |
| 20260903091433 | 55 | 173 | 2.0 | 6.0 | 0.01 | 0.18 | 0.01 | 89 | 1009.1 |
| 20260903091429 | 55 | 180 | 2.0 | 6.0 | 0.01 | 0.18 | 0.01 | 89 | 1009.1 |
| 20260903090427 | 55 | 175 | 3.0 | 6.0 | 0.01 | 0.18 | 0.01 | 89 | 1009.1 |
| 20260903085925 | 55 | 161 | 3.0 | 6.0 | 0.01 | 0.18 | 0.01 | 89 | 1009.2 |
| 20260903085425 | 55 | 155 | 3.0 | 8.0 | 0.01 | 0.18 | 0.01 | 89 | 1009.2 |
| 20260903084925 | 55 | 178 | 4.0 | 8.0 | 0.01 | 0.18 | 0.01 | 89 | 1009.2 |
| 20260903084425 | 55 | 171 | 4.0 | 8.0 | 0.01 | 0.18 | 0.01 | 89 | 1009.2 |
| 20260903083926 | 56 | 175 | 4.0 | 8.0 | 0.01 | 0.18 | 0.01 | 89 | 1009.3 |
| 20260903083425 | 56 | 200 | 3.0 | 7.0 | 0.00 | 0.17 | 0.00 | 89 | 1009.4 |
| 20260903082925 | 56 | 172 | 2.0 | 5.0 | 0.00 | 0.17 | 0.00 | 89 | 1009.3 |
| 20260903082425 | 55 | 169 | 2.0 | 5.0 | 0.00 | 0.17 | 0.00 | 89 | 1009.3 |
| 20260903081929 | 55 | 182 | 2.0 | 5.0 | 0.00 | 0.17 | 0.00 | 89 | 1009.2 |
| 20260903081925 | 55 | 182 | 2.0 | 5.0 | 0.00 | 0.17 | 0.00 | 89 | 1009.3 |
| 20260903080926 | 56 | 163 | 2.0 | 6.0 | 0.00 | 0.17 | 0.00 | 89 | 1009.3 |
| 20260903080426 | 56 | 167 | 2.0 | 6.0 | 0.00 | 0.17 | 0.00 | 89 | 1009.2 |
| 20260903075924 | 56 | 172 | 2.0 | 6.0 | 0.00 | 0.17 | 0.00 | 90 | 1009.2 |
| 20260903075426 | 56 | 167 | 2.0 | 6.0 | 0.00 | 0.17 | 0.00 | 90 | 1009.4 |
| 20260903074924 | 56 | 170 | 2.0 | 6.0 | 0.00 | 0.17 | 0.00 | 90 | 1009.3 |
| 20260903074422 | 56 | 169 | 2.0 | 4.0 | 0.00 | 0.17 | 0.00 | 90 | 1009.3 |
| 20260903073922 | 56 | 164 | 2.0 | 6.0 | 0.00 | 0.17 | 0.00 | 90 | 1009.3 |
| 20260903073424 | 56 | 166 | 2.0 | 6.0 | 0.00 | 0.17 | 0.00 | 90 | 1009.4 |
| 20260903072923 | 56 | 174 | 2.0 | 5.0 | 0.00 | 0.17 | 0.00 | 90 | 1009.3 |
| 20260903072423 | 56 | 173 | 1.0 | 5.0 | 0.00 | 0.17 | 0.00 | 91 | 1009.3 |
| 20260903071922 | 56 | 171 | 0.0 | 5.0 | 0.00 | 0.17 | 0.00 | 91 | 1009.3 |
| 20260903071425 | 55 | 170 | 1.0 | 5.0 | 0.00 | 0.17 | 0.00 | 91 | 1009.3 |
| 20260903070928 | 55 | 163 | 1.0 | 3.0 | 0.00 | 0.17 | 0.17 | 91 | 1009.3 |
| 20260903070924 | 55 | 169 | 1.0 | 5.0 | 0.00 | 0.17 | 0.00 | 91 | 1009.3 |
| 20260903070422 | 55 | 190 | 1.0 | 2.0 | 0.00 | 0.17 | 0.00 | 91 | 1009.3 |
| 20260903065421 | 55 | 178 | 1.0 | 5.0 | 0.00 | 0.17 | 0.17 | 92 | 1009.1 |
| 20260903064922 | 54 | 217 | 1.0 | 5.0 | 0.00 | 0.17 | 0.17 | 92 | 1009.2 |
| 20260903064421 | 53 | 312 | 0.0 | 0.0 | 0.00 | 0.17 | 0.17 | 91 | 1009.2 |
| 20260903063921 | 53 | 312 | 0.0 | 0.0 | 0.00 | 0.17 | 0.17 | 91 | 1009.2 |
| 20260903063423 | 53 | 312 | 0.0 | 2.0 | 0.00 | 0.17 | 0.17 | 91 | 1009.3 |
| 20260903062921 | 53 | 312 | 0.0 | 2.0 | 0.00 | 0.17 | 0.17 | 90 | 1009.3 |
| 20260903062427 | 53 | 312 | 0.0 | 2.0 | 0.00 | 0.17 | 0.17 | 90 | 1009.4 |
| 20260903061926 | 54 | 313 | 0.0 | 2.0 | 0.00 | 0.17 | 0.17 | 89 | 1009.4 |
| 20260903061922 | 54 | 313 | 0.0 | 2.0 | 0.00 | 0.17 | 0.17 | 90 | 1009.3 |
| 20260903060921 | 54 | 313 | 0.0 | 2.0 | 0.00 | 0.17 | 0.17 | 90 | 1009.4 |
| 20260903060536 | 54 | 112 | 0.0 | 2.0 | 0.00 | 0.17 | 0.17 | 88 | 1009.5 |
| 20260903060425 | 54 | 313 | 0.0 | 2.0 | 0.00 | 0.17 | 0.17 | 89 | 1009.4 |
| 20260903060421 | 54 | 313 | 0.0 | 2.0 | 0.00 | 0.17 | 0.17 | 89 | 1009.4 |
| 20260903055421 | 54 | 313 | 0.0 | 2.0 | 0.00 | 0.17 | 0.17 | 89 | 1009.4 |
| 20260903054921 | 54 | 313 | 0.0 | 2.0 | 0.00 | 0.17 | 0.17 | 89 | 1009.4 |
| 20260903053921 | 55 | 180 | 0.0 | 2.0 | 0.00 | 0.17 | 0.17 | 88 | 1009.4 |
| 20260903053421 | 55 | 180 | 0.0 | 2.0 | 0.00 | 0.17 | 0.17 | 88 | 1009.4 |
| 20260903052919 | 55 | 180 | 1.0 | 3.0 | 0.00 | 0.17 | 0.17 | 88 | 1009.4 |
| 20260903052427 | 55 | 164 | 2.0 | 5.0 | 0.00 | 0.17 | 0.17 | 89 | 1009.3 |
| 20260903052420 | 55 | 213 | 2.0 | 5.0 | 0.00 | 0.17 | 0.17 | 88 | 1009.5 |
| 20260903051918 | 55 | 216 | 2.0 | 6.0 | 0.00 | 0.17 | 0.17 | 88 | 1009.4 |
| 20260903051420 | 55 | 170 | 3.0 | 6.0 | 0.00 | 0.17 | 0.17 | 88 | 1009.3 |
| 20260903050420 | 55 | 176 | 2.0 | 5.0 | 0.00 | 0.17 | 0.17 | 89 | 1009.2 |
| 20260903045925 | 55 | 163 | 2.0 | 5.0 | 0.00 | 0.17 | 0.17 | 89 | 1009.3 |
| 20260903045420 | 55 | 178 | 1.0 | 4.0 | 0.00 | 0.17 | 0.17 | 90 | 1009.3 |
| 20260903044917 | 54 | 179 | 0.0 | 2.0 | 0.00 | 0.17 | 0.17 | 90 | 1009.4 |
| 20260903044422 | 54 | 179 | 0.0 | 2.0 | 0.00 | 0.17 | 0.17 | 90 | 1009.4 |
| 20260903043917 | 54 | 179 | 0.0 | 2.0 | 0.00 | 0.17 | 0.17 | 90 | 1009.3 |
| 20260903043418 | 54 | 179 | 0.0 | 2.0 | 0.00 | 0.17 | 0.17 | 90 | 1009.3 |
| 20260903042917 | 54 | 179 | 0.0 | 2.0 | 0.00 | 0.17 | 0.17 | 91 | 1009.2 |
| 20260903042417 | 53 | 179 | 0.0 | 2.0 | 0.00 | 0.17 | 0.17 | 90 | 1009.2 |
| 20260903041917 | 53 | 179 | 0.0 | 0.0 | 0.00 | 0.17 | 0.17 | 91 | 1009.2 |
| 20260903041418 | 53 | 179 | 0.0 | 0.0 | 0.00 | 0.17 | 0.17 | 90 | 1009.1 |
| 20260903040917 | 53 | 179 | 0.0 | 0.0 | 0.00 | 0.17 | 0.17 | 89 | 1009.0 |
| 20260903040420 | 53 | 179 | 0.0 | 0.0 | 0.00 | 0.17 | 0.17 | 87 | 1009.0 |
| 20260903040416 | 53 | 179 | 0.0 | 0.0 | 0.00 | 0.17 | 0.17 | 89 | 1009.0 |
| 20260903040028 | 53 | 179 | 0.0 | 2.0 | 0.00 | 0.17 | 0.17 | 87 | 1008.9 |
| 20260903034916 | 53 | 179 | 0.0 | 2.0 | 0.00 | 0.17 | 0.17 | 86 | 1008.8 |
| 20260903034415 | 54 | 179 | 0.0 | 2.0 | 0.00 | 0.17 | 0.17 | 85 | 1008.9 |
| 20260903033915 | 54 | 179 | 0.0 | 2.0 | 0.00 | 0.17 | 0.17 | 85 | 1008.7 |
| 20260903033416 | 54 | 179 | 0.0 | 2.0 | 0.00 | 0.17 | 0.17 | 84 | 1008.7 |
| 20260903032915 | 55 | 179 | 0.0 | 2.0 | 0.00 | 0.17 | 0.17 | 84 | 1008.6 |
| 20260903032420 | 56 | 179 | 1.0 | 4.0 | 0.00 | 0.17 | 0.17 | 80 | 1008.4 |
| 20260903032415 | 56 | 179 | 0.0 | 2.0 | 0.00 | 0.17 | 0.17 | 82 | 1008.5 |
| 20260903031415 | 57 | 179 | 1.0 | 4.0 | 0.00 | 0.17 | 0.17 | 78 | 1008.5 |
| 20260903030913 | 58 | 198 | 1.0 | 5.0 | 0.00 | 0.17 | 0.17 | 77 | 1008.4 |
| 20260903030412 | 58 | 198 | 1.0 | 5.0 | 0.00 | 0.17 | 0.17 | 76 | 1008.4 |
| 20260903025913 | 58 | 223 | 1.0 | 4.0 | 0.00 | 0.17 | 0.17 | 76 | 1008.2 |
| 20260903025413 | 58 | 189 | 1.0 | 2.0 | 0.00 | 0.17 | 0.17 | 77 | 1008.2 |
| 20260903024913 | 58 | 189 | 1.0 | 4.0 | 0.00 | 0.17 | 0.17 | 76 | 1008.1 |
| 20260903024413 | 58 | 175 | 1.0 | 4.0 | 0.00 | 0.17 | 0.17 | 77 | 1008.1 |
| 20260903023913 | 58 | 184 | 1.0 | 3.0 | 0.00 | 0.17 | 0.17 | 77 | 1008.2 |
| 20260903023413 | 59 | 210 | 1.0 | 2.0 | 0.00 | 0.17 | 0.17 | 76 | 1008.2 |
| 20260903022913 | 60 | 181 | 0.0 | 2.0 | 0.00 | 0.17 | 0.17 | 76 | 1008.2 |
| 20260903022414 | 60 | 181 | 0.0 | 2.0 | 0.00 | 0.17 | 0.17 | 74 | 1008.2 |
| 20260903021911 | 60 | 181 | 0.0 | 2.0 | 0.00 | 0.17 | 0.17 | 73 | 1008.1 |
| 20260903021410 | 61 | 217 | 1.0 | 4.0 | 0.00 | 0.17 | 0.17 | 73 | 1008.0 |
| 20260903020910 | 61 | 207 | 1.0 | 4.0 | 0.00 | 0.17 | 0.17 | 72 | 1008.0 |
| 20260903020410 | 61 | 206 | 2.0 | 3.0 | 0.00 | 0.17 | 0.17 | 71 | 1008.0 |
| 20260903015910 | 61 | 227 | 1.0 | 4.0 | 0.00 | 0.17 | 0.17 | 72 | 1007.9 |
| 20260903015409 | 61 | 225 | 2.0 | 4.0 | 0.00 | 0.17 | 0.17 | 72 | 1007.9 |
| 20260903014908 | 62 | 232 | 2.0 | 5.0 | 0.00 | 0.17 | 0.17 | 73 | 1007.8 |
| 20260903014410 | 62 | 180 | 2.0 | 5.0 | 0.00 | 0.17 | 0.17 | 72 | 1007.7 |
| 20260903013909 | 62 | 233 | 2.0 | 6.0 | 0.00 | 0.17 | 0.17 | 72 | 1007.8 |
| 20260903013408 | 62 | 215 | 3.0 | 6.0 | 0.00 | 0.17 | 0.17 | 73 | 1007.8 |
| 20260903012910 | 62 | 211 | 3.0 | 5.0 | 0.00 | 0.17 | 0.17 | 72 | 1007.8 |
| 20260903012409 | 62 | 209 | 3.0 | 5.0 | 0.00 | 0.17 | 0.17 | 74 | 1007.8 |
| 20260903011910 | 62 | 182 | 2.0 | 5.0 | 0.00 | 0.17 | 0.17 | 74 | 1007.7 |
| 20260903011408 | 62 | 182 | 2.0 | 5.0 | 0.00 | 0.17 | 0.17 | 77 | 1007.7 |
| 20260903010907 | 61 | 225 | 2.0 | 5.0 | 0.00 | 0.17 | 0.17 | 76 | 1007.6 |
| 20260903010411 | 62 | 224 | 3.0 | 7.0 | 0.00 | 0.17 | 0.17 | 75 | 1007.7 |
| 20260903010407 | 61 | 218 | 2.0 | 7.0 | 0.00 | 0.17 | 0.17 | 76 | 1007.7 |
| 20260903005408 | 62 | 206 | 4.0 | 10.0 | 0.00 | 0.17 | 0.17 | 75 | 1007.6 |
| 20260903004906 | 62 | 207 | 4.0 | 10.0 | 0.00 | 0.17 | 0.17 | 75 | 1007.5 |
| 20260903004406 | 62 | 189 | 5.0 | 10.0 | 0.00 | 0.17 | 0.17 | 75 | 1007.6 |
| 20260903003911 | 62 | 184 | 4.0 | 8.0 | 0.00 | 0.17 | 0.17 | 75 | 1007.5 |
| 20260903003907 | 62 | 182 | 4.0 | 10.0 | 0.00 | 0.17 | 0.17 | 75 | 1007.6 |
| 20260903003520 | 63 | 223 | 3.0 | 8.0 | 0.00 | 0.17 | 0.17 | 73 | 1007.5 |
| 20260903002408 | 63 | 192 | 2.0 | 5.0 | 0.00 | 0.17 | 0.17 | 73 | 1007.4 |
| 20260903001908 | 63 | 215 | 2.0 | 5.0 | 0.00 | 0.17 | 0.17 | 77 | 1007.3 |
| 20260903001406 | 63 | 165 | 2.0 | 5.0 | 0.00 | 0.17 | 0.17 | 76 | 1007.4 |
| 20260903000907 | 63 | 244 | 2.0 | 5.0 | 0.00 | 0.17 | 0.17 | 76 | 1007.3 |
| 20260903000406 | 64 | 214 | 2.0 | 5.0 | 0.00 | 0.17 | 0.17 | 75 | 1007.3 |
| 20260902235907 | 63 | 250 | 1.0 | 5.0 | 0.00 | 0.17 | 0.17 | 81 | 1007.3 |
| 20260902235407 | 62 | 232 | 1.0 | 5.0 | 0.00 | 0.17 | 0.17 | 82 | 1007.2 |
| 20260902234907 | 62 | 198 | 1.0 | 3.0 | 0.01 | 0.17 | 0.17 | 83 | 1007.3 |
| 20260902234406 | 62 | 355 | 0.0 | 2.0 | 0.01 | 0.17 | 0.17 | 85 | 1007.2 |
| 20260902233907 | 61 | 355 | 0.0 | 2.0 | 0.01 | 0.17 | 0.17 | 85 | 1007.1 |
| 20260902233407 | 61 | 355 | 0.0 | 2.0 | 0.01 | 0.17 | 0.17 | 84 | 1007.0 |
| 20260902232906 | 61 | 355 | 0.0 | 2.0 | 0.01 | 0.17 | 0.17 | 86 | 1007.1 |
| 20260902232407 | 61 | 355 | 0.0 | 2.0 | 0.01 | 0.17 | 0.17 | 87 | 1007.1 |
| 20260902231911 | 60 | 355 | 0.0 | 3.0 | 0.01 | 0.17 | 0.17 | 88 | 1007.1 |
| 20260902231905 | 60 | 325 | 0.0 | 3.0 | 0.01 | 0.17 | 0.17 | 86 | 1007.0 |
| 20260902231019 | 60 | 305 | 1.0 | 3.0 | 0.01 | 0.17 | 0.17 | 83 | 1006.9 |
| 20260902230909 | 60 | 311 | 1.0 | 3.0 | 0.01 | 0.17 | 0.17 | 86 | 1006.9 |
| 20260902230905 | 60 | 325 | 1.0 | 3.0 | 0.01 | 0.17 | 0.17 | 86 | 1007.0 |
| 20260902225408 | 60 | 299 | 1.0 | 3.0 | 0.00 | 0.16 | 0.16 | 82 | 1006.8 |
| 20260902225404 | 60 | 299 | 0.0 | 3.0 | 0.01 | 0.17 | 0.17 | 83 | 1006.8 |
| 20260902225016 | 61 | 302 | 1.0 | 3.0 | 0.00 | 0.16 | 0.16 | 80 | 1006.7 |
| 20260902223905 | 61 | 266 | 1.0 | 5.0 | 0.00 | 0.16 | 0.16 | 83 | 1006.6 |
| 20260902223900 | 61 | 266 | 1.0 | 2.0 | 0.00 | 0.16 | 0.16 | 82 | 1006.7 |
| 20260902223514 | 61 | 291 | 2.0 | 5.0 | 0.00 | 0.16 | 0.16 | 81 | 1006.6 |
| 20260902223020 | 61 | 302 | 2.0 | 4.0 | 0.00 | 0.16 | 0.16 | 84 | 1006.3 |
| 20260902221901 | 61 | 290 | 1.0 | 3.0 | 0.00 | 0.16 | 0.16 | 83 | 1006.3 |
| 20260902221404 | 61 | 275 | 1.0 | 3.0 | 0.00 | 0.16 | 0.16 | 84 | 1006.3 |
| 20260902221400 | 60 | 233 | 1.0 | 3.0 | 0.00 | 0.16 | 0.16 | 83 | 1006.3 |
| 20260902220359 | 61 | 165 | 0.0 | 4.0 | 0.00 | 0.16 | 0.16 | 84 | 1006.2 |
| 20260902215858 | 61 | 260 | 1.0 | 4.0 | 0.00 | 0.16 | 0.16 | 87 | 1006.2 |
| 20260902215358 | 61 | 259 | 1.0 | 4.0 | 0.00 | 0.16 | 0.16 | 87 | 1006.3 |
| 20260902214856 | 61 | 289 | 1.0 | 4.0 | 0.00 | 0.16 | 0.16 | 87 | 1006.3 |
| 20260902214357 | 60 | 281 | 1.0 | 3.0 | 0.00 | 0.16 | 0.16 | 88 | 1006.3 |
| 20260902213856 | 60 | 235 | 1.0 | 3.0 | 0.00 | 0.16 | 0.16 | 90 | 1006.2 |
| 20260902213358 | 60 | 299 | 0.0 | 2.0 | 0.00 | 0.16 | 0.16 | 90 | 1006.1 |
| 20260902212854 | 60 | 299 | 1.0 | 3.0 | 0.00 | 0.16 | 0.16 | 90 | 1006.0 |
| 20260902212355 | 60 | 299 | 1.0 | 4.0 | 0.00 | 0.16 | 0.16 | 90 | 1006.0 |
| 20260902211859 | 60 | 213 | 2.0 | 6.0 | 0.00 | 0.16 | 0.16 | 89 | 1005.8 |
| 20260902211855 | 60 | 318 | 1.0 | 4.0 | 0.00 | 0.16 | 0.16 | 90 | 1005.9 |
| 20260902210854 | 60 | 207 | 3.0 | 6.0 | 0.00 | 0.16 | 0.16 | 88 | 1005.8 |
| 20260902210401 | 60 | 175 | 3.0 | 9.0 | 0.00 | 0.16 | 0.16 | 90 | 1005.6 |
| 20260902210357 | 60 | 178 | 3.0 | 9.0 | 0.00 | 0.16 | 0.16 | 89 | 1005.7 |
| 20260902210007 | 60 | 172 | 4.0 | 8.0 | 0.00 | 0.16 | 0.16 | 89 | 1005.6 |
| 20260902204854 | 60 | 182 | 4.0 | 9.0 | 0.01 | 0.16 | 0.16 | 88 | 1005.5 |
| 20260902204355 | 60 | 180 | 5.0 | 12.0 | 0.01 | 0.16 | 0.16 | 89 | 1005.5 |
| 20260902203859 | 60 | 186 | 5.0 | 8.0 | 0.01 | 0.16 | 0.16 | 90 | 1005.4 |
| 20260902203854 | 60 | 167 | 5.0 | 12.0 | 0.01 | 0.16 | 0.16 | 90 | 1005.4 |
| 20260902203512 | 60 | 179 | 4.0 | 8.0 | 0.01 | 0.16 | 0.16 | 90 | 1005.5 |
| 20260902202358 | 60 | 158 | 4.0 | 12.0 | 0.02 | 0.16 | 0.16 | 91 | 1005.3 |
| 20260902202354 | 60 | 171 | 4.0 | 12.0 | 0.01 | 0.16 | 0.16 | 91 | 1005.4 |
| 20260902201355 | 60 | 190 | 2.0 | 7.0 | 0.02 | 0.16 | 0.16 | 91 | 1005.4 |
| 20260902200852 | 60 | 186 | 2.0 | 6.0 | 0.02 | 0.16 | 0.16 | 92 | 1005.3 |
| 20260902200354 | 59 | 161 | 2.0 | 9.0 | 0.02 | 0.16 | 0.16 | 91 | 1005.3 |
| 20260902195852 | 59 | 173 | 3.0 | 10.0 | 0.03 | 0.16 | 0.16 | 91 | 1005.3 |
| 20260902195353 | 59 | 175 | 3.0 | 10.0 | 0.03 | 0.16 | 0.16 | 92 | 1005.3 |
| 20260902194853 | 59 | 155 | 3.0 | 9.0 | 0.02 | 0.15 | 0.15 | 91 | 1005.4 |
| 20260902194352 | 59 | 169 | 3.0 | 10.0 | 0.02 | 0.15 | 0.15 | 91 | 1005.3 |
| 20260902193852 | 58 | 188 | 4.0 | 10.0 | 0.03 | 0.15 | 0.15 | 91 | 1005.4 |
| 20260902193353 | 58 | 172 | 5.0 | 15.0 | 0.03 | 0.15 | 0.15 | 91 | 1005.4 |
| 20260902192852 | 58 | 156 | 6.0 | 15.0 | 0.04 | 0.15 | 0.15 | 90 | 1005.3 |
| 20260902192353 | 58 | 169 | 4.0 | 13.0 | 0.04 | 0.15 | 0.15 | 90 | 1005.2 |
| 20260902191855 | 58 | 176 | 2.0 | 8.0 | 0.04 | 0.14 | 0.14 | 91 | 1005.2 |
| 20260902191849 | 58 | 173 | 3.0 | 11.0 | 0.03 | 0.14 | 0.14 | 91 | 1005.2 |
| 20260902191503 | 58 | 163 | 2.0 | 10.0 | 0.04 | 0.14 | 0.14 | 92 | 1005.2 |
| 20260902191003 | 58 | 161 | 2.0 | 10.0 | 0.05 | 0.14 | 0.14 | 91 | 1005.2 |
| 20260902185850 | 57 | 157 | 1.0 | 9.0 | 0.04 | 0.13 | 0.14 | 91 | 1005.3 |
| 20260902185356 | 57 | 171 | 2.0 | 8.0 | 0.06 | 0.13 | 0.13 | 91 | 1005.4 |
| 20260902185352 | 57 | 166 | 2.0 | 8.0 | 0.05 | 0.13 | 0.13 | 91 | 1005.2 |
| 20260902185003 | 57 | 189 | 2.0 | 8.0 | 0.07 | 0.13 | 0.13 | 91 | 1005.4 |
| 20260902183852 | 57 | 188 | 2.0 | 9.0 | 0.08 | 0.12 | 0.12 | 91 | 1005.3 |
| 20260902183848 | 57 | 165 | 2.0 | 8.0 | 0.07 | 0.12 | 0.12 | 91 | 1005.4 |
| 20260902182848 | 57 | 136 | 2.0 | 9.0 | 0.07 | 0.11 | 0.11 | 91 | 1005.3 |
| 20260902182353 | 57 | 180 | 1.0 | 5.0 | 0.07 | 0.11 | 0.11 | 91 | 1005.4 |
| 20260902182348 | 57 | 180 | 2.0 | 6.0 | 0.07 | 0.11 | 0.11 | 91 | 1005.4 |
| 20260902181352 | 57 | 317 | 1.0 | 4.0 | 0.06 | 0.10 | 0.10 | 90 | 1005.6 |
| 20260902181348 | 57 | 161 | 1.0 | 4.0 | 0.06 | 0.10 | 0.10 | 90 | 1005.5 |
| 20260902180353 | 57 | 173 | 1.0 | 5.0 | 0.06 | 0.09 | 0.09 | 90 | 1005.5 |
| 20260902180347 | 57 | 168 | 1.0 | 5.0 | 0.05 | 0.09 | 0.10 | 90 | 1005.5 |
| 20260902175349 | 58 | 173 | 1.0 | 4.0 | 0.05 | 0.08 | 0.08 | 90 | 1005.5 |
| 20260902174848 | 58 | 179 | 1.0 | 4.0 | 0.04 | 0.07 | 0.07 | 89 | 1005.5 |
| 20260902174347 | 58 | 180 | 0.0 | 3.0 | 0.03 | 0.06 | 0.06 | 89 | 1005.7 |
| 20260902173849 | 58 | 178 | 0.0 | 4.0 | 0.03 | 0.05 | 0.05 | 89 | 1005.9 |
| 20260902173345 | 58 | 169 | 1.0 | 4.0 | 0.02 | 0.04 | 0.04 | 89 | 1006.0 |
| 20260902172851 | 58 | 157 | 0.0 | 3.0 | 0.02 | 0.04 | 0.04 | 89 | 1005.9 |
| 20260902172847 | 58 | 177 | 0.0 | 2.0 | 0.02 | 0.04 | 0.04 | 89 | 1005.9 |
| 20260902172459 | 58 | 169 | 0.0 | 3.0 | 0.03 | 0.04 | 0.04 | 89 | 1006.0 |
| 20260902171346 | 58 | 135 | 0.0 | 3.0 | 0.03 | 0.04 | 0.04 | 89 | 1006.1 |
| 20260902170846 | 58 | 185 | 0.0 | 3.0 | 0.03 | 0.04 | 0.04 | 89 | 1006.1 |
| 20260902170345 | 58 | 186 | 0.0 | 3.0 | 0.03 | 0.04 | 0.04 | 89 | 1006.2 |
| 20260902165847 | 58 | 159 | 0.0 | 3.0 | 0.02 | 0.03 | 0.04 | 89 | 1006.3 |
| 20260902165345 | 58 | 150 | 1.0 | 5.0 | 0.03 | 0.03 | 0.03 | 89 | 1006.3 |
| 20260902164844 | 58 | 184 | 1.0 | 5.0 | 0.03 | 0.03 | 0.03 | 88 | 1006.3 |
| 20260902164345 | 58 | 169 | 1.0 | 5.0 | 0.03 | 0.03 | 0.03 | 88 | 1006.3 |
| 20260902163848 | 58 | 133 | 0.0 | 4.0 | 0.02 | 0.02 | 0.02 | 88 | 1006.3 |
| 20260902163844 | 58 | 186 | 1.0 | 5.0 | 0.02 | 0.02 | 0.02 | 88 | 1006.3 |
| 20260902162843 | 58 | 175 | 0.0 | 0.0 | 0.02 | 0.02 | 0.02 | 89 | 1006.3 |
| 20260902162344 | 58 | 175 | 0.0 | 0.0 | 0.02 | 0.02 | 0.02 | 89 | 1006.3 |
| 20260902161843 | 58 | 221 | 0.0 | 0.0 | 0.01 | 0.01 | 0.01 | 89 | 1006.5 |
| 20260902161349 | 58 | 221 | 0.0 | 0.0 | 0.01 | 0.01 | 0.01 | 88 | 1006.3 |
| 20260902161345 | 58 | 221 | 0.0 | 0.0 | 0.01 | 0.01 | 0.01 | 89 | 1006.3 |
| 20260902160842 | 58 | 221 | 0.0 | 0.0 | 0.01 | 0.01 | 0.01 | 88 | 1006.3 |
| 20260902160455 | 58 | 221 | 0.0 | 0.0 | 0.00 | 0.00 | 0.00 | 87 | 1006.3 |
| 20260902155841 | 58 | 221 | 0.0 | 0.0 | 0.01 | 0.01 | 0.01 | 88 | 1006.3 |
| 20260902155340 | 58 | 221 | 0.0 | 0.0 | 0.00 | 0.00 | 0.00 | 87 | 1006.3 |
| 20260902154344 | 58 | 221 | 0.0 | 2.0 | 0.00 | 0.00 | 0.00 | 87 | 1006.5 |
| 20260902154340 | 58 | 221 | 0.0 | 0.0 | 0.00 | 0.00 | 0.00 | 87 | 1006.5 |
| 20260902153958 | 58 | 221 | 0.0 | 2.0 | 0.00 | 0.00 | 0.00 | 86 | 1006.5 |
| 20260902152837 | 58 | 221 | 0.0 | 0.0 | 0.00 | 0.00 | 0.00 | 85 | 1006.5 |
| 20260902152337 | 58 | 221 | 0.0 | 2.0 | 0.00 | 0.00 | 0.00 | 85 | 1006.6 |
| 20260902151838 | 58 | 221 | 0.0 | 2.0 | 0.00 | 0.00 | 0.00 | 85 | 1006.7 |
| 20260902151339 | 58 | 221 | 0.0 | 2.0 | 0.00 | 0.00 | 0.00 | 85 | 1006.6 |
| 20260902150838 | 58 | 221 | 0.0 | 2.0 | 0.00 | 0.00 | 0.00 | 84 | 1006.7 |
| 20260902150338 | 58 | 221 | 0.0 | 2.0 | 0.00 | 0.00 | 0.00 | 85 | 1006.7 |
| 20260902145837 | 58 | 221 | 0.0 | 2.0 | 0.00 | 0.00 | 0.00 | 85 | 1006.8 |
| 20260902145339 | 58 | 235 | 0.0 | 2.0 | 0.00 | 0.00 | 0.00 | 85 | 1006.8 |
| 20260902144844 | 58 | 197 | 0.0 | 0.0 | 0.00 | 0.00 | 0.00 | 85 | 1006.9 |
| 20260902144837 | 58 | 235 | 0.0 | 2.0 | 0.00 | 0.00 | 0.00 | 85 | 1006.8 |
| 20260902144338 | 58 | 235 | 0.0 | 1.0 | 0.00 | 0.00 | 0.00 | 85 | 1006.9 |
| 20260902143338 | 58 | 197 | 0.0 | 0.0 | 0.00 | 0.00 | 0.00 | 85 | 1006.9 |
| 20260902142837 | 58 | 197 | 0.0 | 0.0 | 0.00 | 0.00 | 0.00 | 85 | 1007.0 |
| 20260902142337 | 58 | 197 | 0.0 | 0.0 | 0.00 | 0.00 | 0.00 | 85 | 1007.1 |
| 20260902141838 | 58 | 196 | 0.0 | 0.0 | 0.00 | 0.00 | 0.00 | 85 | 1007.2 |
| 20260902141337 | 58 | 196 | 0.0 | 0.0 | 0.00 | 0.00 | 0.00 | 84 | 1007.3 |
| 20260902140838 | 58 | 196 | 0.0 | 0.0 | 0.00 | 0.00 | 0.00 | 83 | 1007.3 |
| 20260902140339 | 58 | 196 | 0.0 | 0.0 | 0.00 | 0.00 | 0.00 | 83 | 1007.3 |
| 20260902135838 | 58 | 196 | 0.0 | 0.0 | 0.00 | 0.00 | 0.00 | 83 | 1007.3 |
| 20260902135342 | 58 | 196 | 0.0 | 0.0 | 0.00 | 0.00 | 0.00 | 83 | 1007.5 |
| 20260902135338 | 58 | 196 | 0.0 | 0.0 | 0.00 | 0.00 | 0.00 | 83 | 1007.4 |
| 20260902134338 | 58 | 196 | 0.0 | 0.0 | 0.00 | 0.00 | 0.00 | 82 | 1007.5 |
| 20260902133842 | 58 | 196 | 0.0 | 0.0 | 0.00 | 0.00 | 0.00 | 82 | 1007.5 |
| 20260902133838 | 58 | 196 | 0.0 | 0.0 | 0.00 | 0.00 | 0.00 | 82 | 1007.5 |
| 20260902132843 | 58 | 196 | 0.0 | 2.0 | 0.00 | 0.00 | 0.00 | 82 | 1007.6 |
| 20260902132838 | 58 | 196 | 0.0 | 0.0 | 0.00 | 0.00 | 0.00 | 82 | 1007.6 |
| 20260902131837 | 58 | 196 | 0.0 | 2.0 | 0.00 | 0.00 | 0.00 | 82 | 1007.7 |
| 20260902131337 | 58 | 196 | 0.0 | 2.0 | 0.00 | 0.00 | 0.00 | 82 | 1007.7 |